Location: Beuvrequen
(50.8014°N, 1.6652°E)
Time: 03:48:28
(UTC+00:00)

SeaSat 1 - Pass Details

Date: 16 October 2021
Orbit: 743 x 747 km, 108.0° (Epoch: 28 November)

Event Time Altitude Azimuth Distance (km) Brightness Sun altitude
Exits shadow 20:14:13 27° 2° (N) 1,433 4.0 -31.0°
Drops below altitude 10° 20:16:44 10° 341° (NNW) 2,275 5.4 -31.4°
Sets 20:19:07 0° 334° (NNW) 3,203 6.4 -31.7°
